This is the latest recevied weather packets stored in our database for station/object KM4KBD. If no packets are shown the sender has not sent any weather packets the latest 10 day(s).
| Time | Temp. | Humidity | Pressure | Rain* | Wind** | Luminosity | Snow |
|---|---|---|---|---|---|---|---|
| 1778003178 | 21.67° C | 57% | 1017.4 hPa | 0 mm | - | 430 W/m² | - |
| 1778002874 | 21.67° C | 57% | 1017.3 hPa | 0 mm | - | 485 W/m² | - |
| 1778002571 | 21.67° C | 58% | 1017.7 hPa | 0 mm | - | 471 W/m² | - |
| 1778002268 | 21.11° C | 59% | 1017.7 hPa | 0 mm | - | 377 W/m² | - |
| 1778001966 | 21.67° C | 57% | 1017.7 hPa | 0 mm | - | 304 W/m² | - |
| 1778001663 | 21.67° C | 57% | 1017.7 hPa | 0 mm | - | 328 W/m² | - |
| 1778001357 | 21.67° C | 58% | 1017.8 hPa | 0 mm | - | 376 W/m² | - |
| 1778001054 | 21.67° C | 57% | 1018.1 hPa | 0 mm | - | 407 W/m² | - |
| 1778000751 | 21.67° C | 57% | 1018 hPa | 0 mm | - | 357 W/m² | - |
| 1778000448 | 21.67° C | 56% | 1017.8 hPa | 0 mm | - | 397 W/m² | - |
| 1778000143 | 21.67° C | 58% | 1018 hPa | 0 mm | - | 393 W/m² | - |
| 1777999839 | 21.67° C | 56% | 1018.1 hPa | 0 mm | - | 348 W/m² | - |
| 1777999535 | 21.67° C | 57% | 1018.1 hPa | 0 mm | - | 356 W/m² | - |
| 1777999233 | 21.67° C | 59% | 1018 hPa | 0 mm | - | 364 W/m² | - |
| 1777998931 | 21.67° C | 58% | 1017.9 hPa | 0 mm | - | 346 W/m² | - |
| 1777998627 | 21.11° C | 59% | 1017.9 hPa | 0 mm | - | 333 W/m² | - |
| 1777998321 | 21.11° C | 58% | 1018.1 hPa | 0 mm | - | 318 W/m² | - |
| 1777998018 | 21.11° C | 58% | 1018.3 hPa | 0 mm | - | 301 W/m² | - |
| 1777997714 | 21.67° C | 58% | 1018 hPa | 0 mm | - | 347 W/m² | - |
| 1777997412 | 21.67° C | 57% | 1018.1 hPa | 0 mm | - | 400 W/m² | - |
| 1777997110 | 21.67° C | 58% | 1018.1 hPa | 0 mm | - | 415 W/m² | - |
| 1777996807 | 21.11° C | 58% | 1018.3 hPa | 0 mm | - | 453 W/m² | - |
| 1777996502 | 21.11° C | 58% | 1018.1 hPa | 0 mm | - | 433 W/m² | - |
| 1777996199 | 21.11° C | 59% | 1018.1 hPa | 0 mm | - | 430 W/m² | - |
| 1777995896 | 21.11° C | 59% | 1018.1 hPa | 0 mm | - | 449 W/m² | - |
* Rain latest hour (hover to see other rain measurements)
** Current wind speed in m/s (hover to see current wind gust speed)